Find Starlink 4789

NORAD ID: 53868 Int'l Des: 2022-114 Owner: SPXS Country: US Constellation: starlink operational
LEOCIRCULAR

現在のビュー

3D地球を読み込み中...

Starlink 4789について

説明を読み込み中...

次回通過

Passes for default location (London). Set your location on the main map for personalized predictions.

高度履歴

Loading altitude history...

軌道要素

1 53868U 22114BC 26149.63382486 .00000051 00000-0 21332-4 0 9993
2 53868 53.2002 260.6484 0001509 63.7467 296.3680 15.08835547205616
Epoch: May 29, 2026 • Age: 20 hours

現在のステータス

高度 555.9 km
速度 7.58 km/s
衛星直下点 -44.65°S, 65.9°E
打ち上げ日 Sep 19, 2022
運用期間 3.6 years
タイプ internet

技術仕様

分類 Payload
質量 305.00 kg
乾燥質量 290.00 kg
総質量 305.00 kg
長さ 0.20 m
直径 2.80 m
スパン 9.00 m
形状 Box + pan
製造者 SPXS
バスタイプ Starlink
フェーズステータス In Orbit
所有者/国 SPXS/US

Most Searched